"Period start","avg(HW err(1)/warn(2) (#))","avg(Visibility (m))","avg(Weather code (#))","avg(Precip intensity (mm/h))","min(HW err(1)/warn(2) (#))","max(HW err(1)/warn(2) (#))","std(HW err(1)/warn(2) (#))","med(HW err(1)/warn(2) (#))","min(Visibility (m))","max(Visibility (m))","std(Visibility (m))","med(Visibility (m))","min(Weather code (#))","max(Weather code (#))","std(Weather code (#))","med(Weather code (#))","min(Precip intensity (mm/h))","max(Precip intensity (mm/h))","std(Precip intensity (mm/h))","med(Precip intensity (mm/h))"
2014-10-24 00:00:00,2,24359,0,0.00,2,2,0,2,19666,28476,2626,24220,0,0,0,0,0.00,0.00,0.00,0.00
2014-10-24 00:10:00,2,26388,0,0.00,2,2,0,2,23012,29754,2236,25848,0,0,0,0,0.00,0.00,0.00,0.00
2014-10-24 00:20:00,2,30468,0,0.00,2,2,0,2,21853,42448,6750,27880,0,0,0,0,0.00,0.00,0.00,0.00
2014-10-24 00:30:00,2,28773,0,0.00,2,2,0,2,23476,34073,3657,28279,0,0,0,0,0.00,0.00,0.00,0.00
2014-10-24 00:40:00,2,28506,0,0.00,2,2,0,2,24603,32589,2641,28103,0,0,0,0,0.00,0.00,0.00,0.00
2014-10-24 00:50:00,2,21842,8,0.00,2,2,0,2,11926,30300,5909,23808,0,40,16,0,0.00,0.00,0.00,0.00
2014-10-24 01:00:00,2,11802,68,0.01,2,2,0,2,7404,16041,2766,11790,40,77,14,77,0.00,0.05,0.02,0.00
2014-10-24 01:10:00,2,29944,37,0.00,2,2,0,2,17298,37627,7512,33447,0,77,37,36,0.00,0.00,0.00,0.00
2014-10-24 01:20:00,2,32045,0,0.00,2,2,0,2,26709,36590,3401,32188,0,0,0,0,0.00,0.00,0.00,0.00
2014-10-24 01:30:00,2,21297,0,0.00,2,2,0,2,14785,27575,3751,20363,0,0,0,0,0.00,0.00,0.00,0.00
2014-10-24 01:40:00,2,19282,65,0.00,2,2,0,2,14502,32454,5774,17097,0,77,22,71,0.00,0.00,0.00,0.00
2014-10-24 01:50:00,2,24512,74,0.00,2,2,0,2,20181,29422,2618,24240,71,77,3,74,0.00,0.00,0.00,0.00
2014-10-24 02:00:00,2,20707,74,0.00,2,2,0,2,17534,24627,2654,20404,71,77,3,74,0.00,0.00,0.00,0.00
2014-10-24 02:10:00,2,19104,75,0.00,2,2,0,2,17156,21850,1539,18806,71,77,3,77,0.00,0.00,0.00,0.00
2014-10-24 02:20:00,2,23595,75,0.00,2,2,0,2,15955,31225,4594,23486,71,77,3,77,0.00,0.00,0.00,0.00
2014-10-24 02:30:00,2,25134,74,0.00,2,2,0,2,15756,35065,6307,24271,71,77,3,74,0.00,0.00,0.00,0.00
2014-10-24 02:40:00,2,31086,74,0.00,2,2,0,2,26030,39041,3813,30242,71,77,3,74,0.00,0.00,0.00,0.00
2014-10-24 02:50:00,2,26825,15,0.00,2,2,0,2,18621,35430,4613,27699,0,77,30,0,0.00,0.00,0.00,0.00
2014-10-24 03:00:00,2,28545,44,0.00,2,2,0,2,25366,34474,2381,28164,0,77,36,71,0.00,0.00,0.00,0.00
2014-10-24 03:10:00,2,28757,75,0.00,2,2,0,2,26045,34232,2825,27388,71,77,3,77,0.00,0.00,0.00,0.00
2014-10-24 03:20:00,2,29402,29,0.00,2,2,0,2,24353,38824,4351,28601,0,77,36,0,0.00,0.00,0.00,0.00
2014-10-24 03:30:00,2,21124,74,0.00,2,2,0,2,16908,25862,2607,20490,71,77,3,74,0.00,0.00,0.00,0.00
2014-10-24 03:40:00,2,23126,73,0.00,2,2,0,2,19365,30145,3357,22308,71,77,3,71,0.00,0.00,0.00,0.00
2014-10-24 03:50:00,2,25703,74,0.00,2,2,0,2,18955,34699,5816,24858,71,77,3,74,0.00,0.00,0.00,0.00
2014-10-24 04:00:00,2,28943,74,0.00,2,2,0,2,22349,34099,3911,28477,71,77,3,74,0.00,0.00,0.00,0.00
2014-10-24 04:10:00,2,30336,8,0.00,2,2,0,2,28623,34941,1746,30010,0,77,23,0,0.00,0.00,0.00,0.00
2014-10-24 04:20:00,2,29831,0,0.00,2,2,0,2,22950,34618,4021,31366,0,0,0,0,0.00,0.00,0.00,0.00
2014-10-24 04:30:00,2,30924,0,0.00,2,2,0,2,23994,41214,5863,29113,0,0,0,0,0.00,0.00,0.00,0.00
2014-10-24 04:40:00,2,24205,0,0.00,2,2,0,2,20809,29907,2919,23500,0,0,0,0,0.00,0.00,0.00,0.00
2014-10-24 04:50:00,2,29335,0,0.00,2,2,0,2,22298,37060,5386,27066,0,0,0,0,0.00,0.00,0.00,0.00
2014-10-24 05:00:00,2,35341,0,0.00,2,2,0,2,29530,43339,4111,35374,0,0,0,0,0.00,0.00,0.00,0.00
2014-10-24 05:10:00,2,42903,0,0.00,2,2,0,2,34010,49487,4123,43474,0,0,0,0,0.00,0.00,0.00,0.00
2014-10-24 05:20:00,2,44939,0,0.00,2,2,0,2,41837,47904,1765,45310,0,0,0,0,0.00,0.00,0.00,0.00
2014-10-24 05:30:00,2,44409,0,0.00,2,2,0,2,34625,50000,5146,46498,0,0,0,0,0.00,0.00,0.00,0.00
2014-10-24 05:40:00,2,47491,0,0.00,2,2,0,2,38124,50000,3660,49564,0,0,0,0,0.00,0.00,0.00,0.00
2014-10-24 05:50:00,2,46475,0,0.00,2,2,0,2,41406,50000,2974,46280,0,0,0,0,0.00,0.00,0.00,0.00
2014-10-24 06:00:00,2,46342,0,0.00,2,2,0,2,40004,50000,3896,48446,0,0,0,0,0.00,0.00,0.00,0.00
2014-10-24 06:10:00,2,46352,0,0.00,2,2,0,2,41078,50000,3150,45274,0,0,0,0,0.00,0.00,0.00,0.00
2014-10-24 06:20:00,2,48906,0,0.00,2,2,0,2,46818,50000,1364,50000,0,0,0,0,0.00,0.00,0.00,0.00
2014-10-24 06:30:00,2,49703,0,0.00,2,2,0,2,47032,50000,890,50000,0,0,0,0,0.00,0.00,0.00,0.00
2014-10-24 06:40:00,2,48892,0,0.00,2,2,0,2,44563,50000,1617,49628,0,0,0,0,0.00,0.00,0.00,0.00
2014-10-24 06:50:00,2,49669,0,0.00,2,2,0,2,47967,50000,629,50000,0,0,0,0,0.00,0.00,0.00,0.00
2014-10-24 07:00:00,2,47686,0,0.00,2,2,0,2,43574,50000,2332,48112,0,0,0,0,0.00,0.00,0.00,0.00
2014-10-24 07:10:00,2,47096,0,0.00,2,2,0,2,38817,50000,3471,48596,0,0,0,0,0.00,0.00,0.00,0.00
2014-10-24 07:20:00,2,16548,53,0.03,2,2,0,2,10936,27305,5982,13484,0,77,35,74,0.00,0.10,0.03,0.03
2014-10-24 07:30:00,2,20688,77,0.02,2,2,0,2,15672,26667,3520,19904,77,77,0,77,0.00,0.05,0.02,0.00
2014-10-24 07:40:00,2,42988,62,0.00,2,2,0,2,31530,50000,5440,44376,0,78,31,78,0.00,0.00,0.00,0.00
2014-10-24 07:50:00,2,49310,0,0.00,2,2,0,2,46638,50000,1014,49619,0,0,0,0,0.00,0.00,0.00,0.00
2014-10-24 08:00:00,2,45632,0,0.00,2,2,0,2,41697,50000,2441,45524,0,0,0,0,0.00,0.00,0.00,0.00
2014-10-24 08:10:00,2,39808,0,0.00,2,2,0,2,34118,47461,4062,38626,0,0,0,0,0.00,0.00,0.00,0.00
2014-10-24 08:20:00,2,40707,0,0.00,2,2,0,2,35098,45307,3765,42124,0,0,0,0,0.00,0.00,0.00,0.00
2014-10-24 08:30:00,2,49147,0,0.00,2,2,0,2,46125,50000,1098,49264,0,0,0,0,0.00,0.00,0.00,0.00
2014-10-24 08:40:00,2,47886,0,0.00,2,2,0,2,43389,50000,2667,49842,0,0,0,0,0.00,0.00,0.00,0.00
2014-10-24 08:50:00,2,47294,0,0.00,2,2,0,2,41102,50000,2842,47604,0,0,0,0,0.00,0.00,0.00,0.00
2014-10-24 09:00:00,2,49265,0,0.00,2,2,0,2,45489,50000,1379,50000,0,0,0,0,0.00,0.00,0.00,0.00
2014-10-24 09:10:00,2,47565,0,0.00,2,2,0,2,43013,50000,2679,48854,0,0,0,0,0.00,0.00,0.00,0.00
2014-10-24 09:20:00,2,45288,0,0.00,2,2,0,2,42275,50000,2621,45110,0,0,0,0,0.00,0.00,0.00,0.00
2014-10-24 09:30:00,2,48108,0,0.00,2,2,0,2,41632,50000,2474,48946,0,0,0,0,0.00,0.00,0.00,0.00
2014-10-24 09:40:00,2,49864,0,0.00,2,2,0,2,49011,50000,294,50000,0,0,0,0,0.00,0.00,0.00,0.00
2014-10-24 09:50:00,2,49329,0,0.00,2,2,0,2,45645,50000,1350,50000,0,0,0,0,0.00,0.00,0.00,0.00
2014-10-24 10:00:00,2,49956,0,0.00,2,2,0,2,49612,50000,116,50000,0,0,0,0,0.00,0.00,0.00,0.00
2014-10-24 10:10:00,2,49146,0,0.00,2,2,0,2,44963,50000,1556,50000,0,0,0,0,0.00,0.00,0.00,0.00
2014-10-24 10:20:00,2,49715,0,0.00,2,2,0,2,48316,50000,582,50000,0,0,0,0,0.00,0.00,0.00,0.00
2014-10-24 10:30:00,2,50000,0,0.00,2,2,0,2,50000,50000,0,50000,0,0,0,0,0.00,0.00,0.00,0.00
2014-10-24 10:40:00,2,49717,0,0.00,2,2,0,2,48097,50000,570,50000,0,0,0,0,0.00,0.00,0.00,0.00
2014-10-24 10:50:00,2,47818,0,0.00,2,2,0,2,42947,50000,2638,49060,0,0,0,0,0.00,0.00,0.00,0.00
2014-10-24 11:00:00,2,42748,0,0.00,2,2,0,2,34838,50000,4881,41407,0,0,0,0,0.00,0.00,0.00,0.00
2014-10-24 11:10:00,2,48762,0,0.00,2,2,0,2,42944,50000,2506,50000,0,0,0,0,0.00,0.00,0.00,0.00
2014-10-24 11:20:00,2,48080,0,0.00,2,2,0,2,42821,50000,2322,49230,0,0,0,0,0.00,0.00,0.00,0.00
2014-10-24 11:30:00,2,48046,0,0.00,2,2,0,2,40692,50000,3044,50000,0,0,0,0,0.00,0.00,0.00,0.00
2014-10-24 11:40:00,2,48840,0,0.00,2,2,0,2,44432,50000,1947,50000,0,0,0,0,0.00,0.00,0.00,0.00
2014-10-24 11:50:00,2,49960,0,0.00,2,2,0,2,49602,50000,119,50000,0,0,0,0,0.00,0.00,0.00,0.00
2014-10-24 12:00:00,2,48616,0,0.00,2,2,0,2,45770,50000,1642,49486,0,0,0,0,0.00,0.00,0.00,0.00
2014-10-24 12:10:00,2,49434,0,0.00,2,2,0,2,45836,50000,1246,50000,0,0,0,0,0.00,0.00,0.00,0.00
2014-10-24 12:20:00,2,49244,0,0.00,2,2,0,2,45630,50000,1384,50000,0,0,0,0,0.00,0.00,0.00,0.00
2014-10-24 12:30:00,2,48393,0,0.00,2,2,0,2,45889,50000,1519,48341,0,0,0,0,0.00,0.00,0.00,0.00
2014-10-24 12:40:00,2,49914,0,0.00,2,2,0,2,49458,50000,165,50000,0,0,0,0,0.00,0.00,0.00,0.00
2014-10-24 12:50:00,2,49271,0,0.00,2,2,0,2,44475,50000,1625,50000,0,0,0,0,0.00,0.00,0.00,0.00
2014-10-24 13:00:00,2,49996,0,0.00,2,2,0,2,49963,50000,11,50000,0,0,0,0,0.00,0.00,0.00,0.00
2014-10-24 13:10:00,2,49610,0,0.00,2,2,0,2,48726,50000,526,50000,0,0,0,0,0.00,0.00,0.00,0.00
2014-10-24 13:20:00,2,48985,0,0.00,2,2,0,2,45389,50000,1577,50000,0,0,0,0,0.00,0.00,0.00,0.00
2014-10-24 13:30:00,2,50000,0,0.00,2,2,0,2,50000,50000,0,50000,0,0,0,0,0.00,0.00,0.00,0.00
2014-10-24 13:40:00,2,48496,0,0.00,2,2,0,2,43158,50000,2295,49858,0,0,0,0,0.00,0.00,0.00,0.00
2014-10-24 13:50:00,2,47058,0,0.00,2,2,0,2,41029,50000,2844,46658,0,0,0,0,0.00,0.00,0.00,0.00
2014-10-24 14:00:00,2,49724,0,0.00,2,2,0,2,48391,50000,501,50000,0,0,0,0,0.00,0.00,0.00,0.00
2014-10-24 14:10:00,2,49792,0,0.00,2,2,0,2,48130,50000,558,50000,0,0,0,0,0.00,0.00,0.00,0.00
2014-10-24 14:20:00,2,49816,0,0.00,2,2,0,2,48156,50000,553,50000,0,0,0,0,0.00,0.00,0.00,0.00
2014-10-24 14:30:00,2,49930,0,0.00,2,2,0,2,49229,50000,222,50000,0,0,0,0,0.00,0.00,0.00,0.00
2014-10-24 14:40:00,2,44031,0,0.00,2,2,0,2,34089,49078,4643,44734,0,0,0,0,0.00,0.00,0.00,0.00
2014-10-24 14:50:00,2,25348,0,0.00,2,2,0,2,13392,45129,8841,24418,0,0,0,0,0.00,0.00,0.00,0.00
2014-10-24 15:00:00,2,29899,0,0.00,2,2,0,2,20802,43325,7572,27910,0,0,0,0,0.00,0.00,0.00,0.00
2014-10-24 15:10:00,2,12096,69,0.03,2,2,0,2,6513,19641,3684,12044,0,78,23,78,0.00,0.10,0.04,0.00
2014-10-24 15:20:00,2,11212,75,0.06,2,2,0,2,5613,17889,3880,11684,71,77,3,77,0.00,0.25,0.09,0.03
2014-10-24 15:30:00,2,12729,77,0.02,2,2,0,2,6309,17694,3419,12346,71,78,2,77,0.00,0.05,0.02,0.00
2014-10-24 15:40:00,2,29162,39,0.00,2,2,0,2,22474,43176,6438,27266,0,78,39,38,0.00,0.00,0.00,0.00
2014-10-24 15:50:00,2,42146,0,0.00,2,2,0,2,34191,50000,5050,41408,0,0,0,0,0.00,0.00,0.00,0.00
2014-10-24 16:00:00,2,40113,0,0.00,2,2,0,2,35264,47504,3392,39198,0,0,0,0,0.00,0.00,0.00,0.00
2014-10-24 16:10:00,2,48565,0,0.00,2,2,0,2,41851,50000,2388,49674,0,0,0,0,0.00,0.00,0.00,0.00
2014-10-24 16:20:00,2,50000,0,0.00,2,2,0,2,50000,50000,0,50000,0,0,0,0,0.00,0.00,0.00,0.00
2014-10-24 16:30:00,2,49374,0,0.00,2,2,0,2,44504,50000,1639,50000,0,0,0,0,0.00,0.00,0.00,0.00
2014-10-24 16:40:00,2,49297,0,0.00,2,2,0,2,44132,50000,1750,50000,0,0,0,0,0.00,0.00,0.00,0.00
2014-10-24 16:50:00,2,49692,0,0.00,2,2,0,2,46917,50000,925,50000,0,0,0,0,0.00,0.00,0.00,0.00
2014-10-24 17:00:00,2,49941,0,0.00,2,2,0,2,49464,50000,160,50000,0,0,0,0,0.00,0.00,0.00,0.00
2014-10-24 17:10:00,2,49555,0,0.00,2,2,0,2,45695,50000,1287,50000,0,0,0,0,0.00,0.00,0.00,0.00
2014-10-24 17:20:00,2,32267,28,0.01,2,2,0,2,21377,44020,7618,33830,0,71,35,0,0.00,0.10,0.03,0.00
2014-10-24 17:30:00,2,17736,74,0.09,2,2,0,2,5211,39940,10572,14114,71,77,3,74,0.00,0.55,0.16,0.03
2014-10-24 17:40:00,2,23232,71,0.06,2,2,0,2,9562,42227,10392,20668,71,71,0,71,0.00,0.25,0.09,0.00
2014-10-24 17:50:00,2,48166,28,0.00,2,2,0,2,41012,50000,2784,50000,0,71,35,0,0.00,0.00,0.00,0.00
2014-10-24 18:00:00,2,49710,0,0.00,2,2,0,2,48512,50000,501,50000,0,0,0,0,0.00,0.00,0.00,0.00
2014-10-24 18:10:00,2,49480,0,0.00,2,2,0,2,47846,50000,820,50000,0,0,0,0,0.00,0.00,0.00,0.00
2014-10-24 18:20:00,2,49709,0,0.00,2,2,0,2,47782,50000,674,50000,0,0,0,0,0.00,0.00,0.00,0.00
2014-10-24 18:30:00,2,49852,0,0.00,2,2,0,2,48834,50000,345,50000,0,0,0,0,0.00,0.00,0.00,0.00
2014-10-24 18:40:00,2,49974,0,0.00,2,2,0,2,49735,50000,80,50000,0,0,0,0,0.00,0.00,0.00,0.00
2014-10-24 18:50:00,2,50000,0,0.00,2,2,0,2,50000,50000,0,50000,0,0,0,0,0.00,0.00,0.00,0.00
2014-10-24 19:00:00,2,50000,0,0.00,2,2,0,2,50000,50000,0,50000,0,0,0,0,0.00,0.00,0.00,0.00
2014-10-24 19:10:00,2,49953,0,0.00,2,2,0,2,49529,50000,141,50000,0,0,0,0,0.00,0.00,0.00,0.00
2014-10-24 19:20:00,2,41093,29,0.01,2,2,0,2,25570,47897,7466,44130,0,77,36,0,0.00,0.05,0.02,0.00
2014-10-24 19:30:00,2,49751,0,0.00,2,2,0,2,48865,50000,396,50000,0,0,0,0,0.00,0.00,0.00,0.00
2014-10-24 19:40:00,2,49699,0,0.00,2,2,0,2,46988,50000,904,50000,0,0,0,0,0.00,0.00,0.00,0.00
2014-10-24 19:50:00,2,45516,0,0.00,2,2,0,2,34037,50000,5147,46894,0,0,0,0,0.00,0.00,0.00,0.00
2014-10-24 20:00:00,2,14383,71,0.06,2,2,0,2,10224,20735,2777,13862,71,71,0,71,0.00,0.15,0.05,0.05
2014-10-24 20:10:00,2,6893,71,0.44,2,2,0,2,4627,13928,2654,6442,71,71,0,71,0.10,0.80,0.22,0.45
2014-10-24 20:20:00,2,10772,71,0.12,2,2,0,2,7972,14326,2059,10690,71,71,0,71,0.00,0.40,0.12,0.05
2014-10-24 20:30:00,2,9241,76,0.15,2,2,0,2,7177,12442,1552,9073,71,77,2,77,0.05,0.45,0.12,0.10
2014-10-24 20:40:00,2,5808,71,0.61,2,2,0,2,3473,8679,1743,5916,71,71,0,71,0.05,1.25,0.30,0.65
2014-10-24 20:50:00,2,4142,71,0.81,2,2,0,2,2833,6353,1137,3960,71,71,0,71,0.30,1.35,0.35,0.70
2014-10-24 21:00:00,2,6204,71,0.46,2,2,0,2,4605,7129,652,6278,71,71,0,71,0.20,0.75,0.22,0.45
2014-10-24 21:10:00,2,5491,71,0.47,2,2,0,2,3779,8561,1278,5384,71,71,0,71,0.15,0.85,0.24,0.45
2014-10-24 21:20:00,2,8122,71,0.12,2,2,0,2,5999,10202,1278,8360,71,71,0,71,0.00,0.20,0.06,0.12
2014-10-24 21:30:00,2,8037,71,0.28,2,2,0,2,7036,9319,864,7672,71,71,0,71,0.05,0.50,0.16,0.30
2014-10-24 21:40:00,2,7119,71,0.27,2,2,0,2,5041,9380,1007,7215,71,71,0,71,0.10,0.50,0.13,0.28
2014-10-24 21:50:00,2,5399,71,0.49,2,2,0,2,4211,7101,748,5162,71,71,0,71,0.20,1.05,0.24,0.42
2014-10-24 22:00:00,2,3617,71,0.55,2,2,0,2,2864,4477,391,3603,71,71,0,71,0.25,0.85,0.19,0.55
2014-10-24 22:10:00,2,3168,71,0.57,2,2,0,2,2274,3561,352,3293,71,71,0,71,0.25,1.00,0.24,0.57
2014-10-24 22:20:00,2,2033,71,0.66,2,2,0,2,1644,2376,270,2054,71,71,0,71,0.45,0.95,0.15,0.65
2014-10-24 22:30:00,2,2796,71,0.40,2,2,0,2,2165,3264,376,2866,71,71,0,71,0.15,0.65,0.15,0.40
2014-10-24 22:40:00,2,3244,71,0.47,2,2,0,2,2508,3944,443,3246,71,71,0,71,0.10,1.00,0.24,0.42
2014-10-24 22:50:00,2,3431,71,0.20,2,2,0,2,2511,4474,708,3202,71,71,0,71,0.10,0.55,0.13,0.15
2014-10-24 23:00:00,2,3405,74,0.12,2,2,0,2,2954,4066,297,3438,71,77,3,74,0.05,0.20,0.05,0.10
2014-10-24 23:10:00,2,4366,75,0.11,2,2,0,2,3529,5920,680,4236,71,77,3,77,0.05,0.30,0.07,0.10
2014-10-24 23:20:00,2,4985,71,0.09,2,2,0,2,4070,5614,435,5016,71,71,0,71,0.00,0.20,0.05,0.10
2014-10-24 23:30:00,2,4868,77,0.02,2,2,0,2,3621,5866,799,4998,77,77,0,77,0.00,0.05,0.02,0.00
2014-10-24 23:40:00,2,6125,77,0.00,2,2,0,2,4836,8573,1207,5733,77,77,0,77,0.00,0.00,0.00,0.00
2014-10-24 23:50:00,2,7706,77,0.02,2,2,0,2,5774,9778,1399,7515,77,77,0,77,0.00,0.05,0.02,0.00
